Radiation Dose measured at exhaust stack monitor of Miscellaneous Solid Waste Incinerator Building/Incinerator raregas monitor
Date,Time,Incinerator Gas Monitor(cps),Wind Direction,Wind Velocity(m/s)
2021/04/26,00:00,1.5,northwest,6.2
2021/04/26,00:10,1.5,northwest,6.2
2021/04/26,00:20,1.5,north-northwest,7.3
2021/04/26,00:30,1.4,northwest,6.3
2021/04/26,00:40,1.5,northwest,6.6
2021/04/26,00:50,1.5,north-northwest,6.3
2021/04/26,01:00,1.4,northwest,5.6
2021/04/26,01:10,1.5,northwest,6.2
2021/04/26,01:20,1.5,northwest,6.0
2021/04/26,01:30,1.5,northwest,8.3
2021/04/26,01:40,1.5,northwest,6.9
2021/04/26,01:50,1.5,northwest,5.1
2021/04/26,02:00,1.6,northwest,4.4
2021/04/26,02:10,1.5,north-northwest,6.1
2021/04/26,02:20,1.5,north-northwest,6.3
2021/04/26,02:30,1.5,north-northwest,5.8
2021/04/26,02:40,1.4,north-northwest,6.1
2021/04/26,02:50,1.5,northwest,7.4
2021/04/26,03:00,1.6,north-northwest,5.1
2021/04/26,03:10,1.5,north-northwest,5.2
2021/04/26,03:20,1.5,north,5.1
2021/04/26,03:30,1.4,north,6.2
2021/04/26,03:40,1.5,north,6.5
2021/04/26,03:50,1.5,north-northwest,5.9
2021/04/26,04:00,1.5,north-northwest,6.7
2021/04/26,04:10,1.5,north-northwest,7.6
2021/04/26,04:20,1.4,north-northwest,7.0
2021/04/26,04:30,1.5,north-northwest,5.6
2021/04/26,04:40,1.4,north-northwest,6.2
2021/04/26,04:50,1.5,north-northwest,6.8
2021/04/26,05:00,1.4,northwest,7.4
2021/04/26,05:10,1.4,northwest,8.1
2021/04/26,05:20,1.5,north-northwest,6.8
2021/04/26,05:30,1.5,northwest,7.1
2021/04/26,05:40,1.5,northwest,6.5
2021/04/26,05:50,1.6,northwest,7.6
2021/04/26,06:00,1.5,northwest,6.4
2021/04/26,06:10,1.5,northwest,6.4
2021/04/26,06:20,1.5,northwest,6.4
2021/04/26,06:30,1.5,north-northwest,7.0
2021/04/26,06:40,1.4,northwest,6.6
2021/04/26,06:50,1.4,north-northwest,8.7
2021/04/26,07:00,1.5,north-northwest,7.9
2021/04/26,07:10,1.4,north-northwest,8.3
2021/04/26,07:20,1.5,northwest,8.7
2021/04/26,07:30,1.4,north-northwest,9.0
2021/04/26,07:40,1.5,north-northwest,12.5
2021/04/26,07:50,1.4,north-northwest,10.9
2021/04/26,08:00,1.4,northwest,9.2
2021/04/26,08:10,1.5,northwest,10.2
2021/04/26,08:20,1.5,northwest,10.2
2021/04/26,08:30,1.3,north-northwest,9.2
2021/04/26,08:40,1.5,northwest,9.1
2021/04/26,08:50,1.4,north,8.7
2021/04/26,09:00,1.6,north-northwest,9.9
2021/04/26,09:10,1.6,north,9.5
2021/04/26,09:20,1.5,north-northwest,10.3
2021/04/26,09:30,1.5,north-northwest,10.3
2021/04/26,09:40,1.5,north,10.3
2021/04/26,09:50,1.5,north,8.6
2021/04/26,10:00,1.5,north-northwest,7.8
2021/04/26,10:10,1.5,northwest,6.8
2021/04/26,10:20,1.5,north-northwest,7.6
2021/04/26,10:30,1.5,north,8.6
2021/04/26,10:40,1.5,north,9.8
2021/04/26,10:50,1.5,north-northwest,8.8
2021/04/26,11:00,1.5,north,11.6
2021/04/26,11:10,1.6,northwest,8.7
2021/04/26,11:20,1.4,northwest,8.5
2021/04/26,11:30,1.5,north-northwest,10.5
2021/04/26,11:40,1.5,north-northwest,11.3
2021/04/26,11:50,1.4,north-northwest,11.1
2021/04/26,12:00,1.5,north-northwest,10.3
2021/04/26,12:10,1.6,northwest,9.9
2021/04/26,12:20,1.5,north-northwest,11.3
2021/04/26,12:30,1.5,north,9.7
2021/04/26,12:40,1.6,north,8.4
2021/04/26,12:50,1.5,north-northwest,10.2
2021/04/26,13:00,1.6,north-northwest,10.2
2021/04/26,13:10,1.5,north-northwest,6.9
2021/04/26,13:20,1.4,north-northwest,10.2
2021/04/26,13:30,1.5,north,7.7
2021/04/26,13:40,1.4,north-northeast,11.1
2021/04/26,13:50,1.6,north-northeast,11.6
2021/04/26,14:00,1.4,north-northeast,11.3
2021/04/26,14:10,1.4,northeast,9.7
2021/04/26,14:20,1.5,north-northeast,10.5
2021/04/26,14:30,1.6,northeast,9.5
2021/04/26,14:40,1.5,northeast,9.9
2021/04/26,14:50,1.4,north-northeast,9.4
2021/04/26,15:00,1.4,north-northeast,8.4
2021/04/26,15:10,1.5,north-northeast,7.8
2021/04/26,15:20,1.5,northeast,7.8
2021/04/26,15:30,1.5,northeast,8.2
2021/04/26,15:40,1.5,north-northeast,8.3
2021/04/26,15:50,1.5,northeast,7.4
2021/04/26,16:00,1.5,northeast,6.2
2021/04/26,16:10,1.4,north-northeast,6.8
2021/04/26,16:20,1.4,north-northeast,6.7
2021/04/26,16:30,1.5,north-northeast,5.6
2021/04/26,16:40,1.5,north-northeast,5.7
2021/04/26,16:50,1.5,north-northeast,5.9
2021/04/26,17:00,1.5,north-northeast,5.7
2021/04/26,17:10,1.5,north-northeast,5.9
2021/04/26,17:20,1.5,north-northeast,6.4
2021/04/26,17:30,1.5,north-northeast,6.0
2021/04/26,17:40,1.5,north-northeast,6.5
2021/04/26,17:50,1.6,north-northeast,6.6
2021/04/26,18:00,1.5,north-northeast,6.1
2021/04/26,18:10,1.4,north-northeast,6.5
2021/04/26,18:20,1.4,north,5.3
2021/04/26,18:30,1.5,north,4.9
2021/04/26,18:40,1.5,north,3.6
2021/04/26,18:50,1.5,north,4.8
2021/04/26,19:00,1.5,north-northwest,5.1
2021/04/26,19:10,1.5,north-northwest,5.4
2021/04/26,19:20,1.4,north-northwest,4.8
2021/04/26,19:30,1.5,north-northwest,4.6
2021/04/26,19:40,1.4,north-northwest,5.1
2021/04/26,19:50,1.4,north-northwest,4.6
2021/04/26,20:00,1.4,north-northwest,5.3
2021/04/26,20:10,1.4,north-northwest,5.1
2021/04/26,20:20,1.5,north,5.6
2021/04/26,20:30,1.4,north-northwest,5.4
2021/04/26,20:40,1.5,north-northwest,5.0
2021/04/26,20:50,1.5,north-northwest,4.7
2021/04/26,21:00,1.5,north-northwest,4.5
2021/04/26,21:10,1.5,north,4.6
2021/04/26,21:20,1.4,north-northwest,4.6
2021/04/26,21:30,1.4,north-northwest,4.7
2021/04/26,21:40,1.5,north-northwest,4.7
2021/04/26,21:50,1.5,north-northwest,4.6
2021/04/26,22:00,1.5,north-northwest,4.9
2021/04/26,22:10,1.4,north-northwest,4.6
2021/04/26,22:20,1.4,northwest,4.1
2021/04/26,22:30,1.5,northwest,4.3
2021/04/26,22:40,1.5,northwest,4.1
2021/04/26,22:50,1.5,northwest,3.9
2021/04/26,23:00,1.5,northwest,4.3
2021/04/26,23:10,1.5,northwest,4.7
2021/04/26,23:20,1.5,northwest,4.8
2021/04/26,23:30,1.5,northwest,5.7
2021/04/26,23:40,1.5,northwest,5.2
2021/04/26,23:50,1.5,northwest,5.4
